Location: Sungai Bunut
(2.6333°N, 113.7333°E)
Time: 15:09:34
(UTC+00:00)

Explorer 7 - All Passes

Search period start: 03 December 2023 00:00
Search period end: 13 December 2023 00:00
Orbit: 472 x 640 km, 50.3° (Epoch: 02 December)

Date Brightness Start Highest point End Pass type
(mag) Time Alt. Az. Time Alt. Az. Time Alt. Az.
03 Dec - 05:14:39 10° S 05:18:15 30° SE 05:21:40 10° ENE daylight
03 Dec - 06:56:07 10° W 06:57:58 13° NW 06:59:46 10° NNW daylight
03 Dec - 17:10:24 10° NNW 17:14:34 67° NE 17:19:00 10° SE night (unlit)
04 Dec - 05:10:44 10° SSW 05:14:44 53° SE 05:18:31 10° NE daylight
04 Dec - 17:06:51 10° NW 17:11:01 71° SW 17:15:27 10° SSE night (unlit)
05 Dec - 05:07:04 10° SW 05:11:10 83° NW 05:15:03 10° NE daylight
05 Dec - 15:26:05 10° NNE 15:27:42 12° NE 15:29:21 10° ENE night (unlit)
05 Dec - 17:03:31 10° WNW 17:07:27 40° SW 17:11:38 10° SSE night (unlit)
06 Dec - 05:03:39 10° SW 05:07:35 45° NW 05:11:18 10° NNE daylight
06 Dec - 15:21:06 10° N 15:24:07 20° NE 15:27:15 10° E night (unlit)
06 Dec - 17:00:28 10° WNW 17:03:53 24° SW 17:07:28 10° S night (unlit)
07 Dec - 03:21:27 10° SSE 03:24:10 17° SE 03:26:47 10° E daylight
07 Dec - 05:00:31 10° WSW 05:03:57 26° NW 05:07:15 10° N daylight
07 Dec - 15:16:50 10° N 15:20:30 32° NE 15:24:21 10° ESE night (unlit)
07 Dec - 16:57:56 10° W 17:00:19 15° SW 17:02:47 10° SSW night (unlit)
08 Dec - 03:16:57 10° S 03:20:36 27° SE 03:24:03 10° ENE daylight
08 Dec - 04:57:50 10° W 05:00:20 16° NW 05:02:45 10° NNW daylight
08 Dec - 15:12:52 10° NNW 15:16:50 57° NE 15:21:03 10° SE night (unlit)
09 Dec - 03:12:51 10° SSW 03:16:58 47° SE 03:20:51 10° NE daylight
09 Dec - 15:09:08 10° NW 15:13:10 81° SW 15:17:27 10° SE night (unlit)
10 Dec - 03:09:01 10° SW 03:13:18 85° SE 03:17:20 10° NE daylight
10 Dec - 15:05:38 10° NW 15:09:29 45° SW 15:13:34 10° SSE night (unlit)
11 Dec - 03:05:24 10° SW 03:09:36 54° NW 03:13:32 10° NNE daylight
11 Dec - 13:23:34 10° NNE 13:26:05 16° NE 13:28:41 10° E night (unlit)
11 Dec - 15:02:24 10° WNW 15:05:48 26° SW 15:09:23 10° S night (unlit)
12 Dec - 01:23:26 10° SSE 01:26:02 15° SE 01:28:33 10° E daylight
12 Dec - 03:02:03 10° WSW 03:05:51 31° NW 03:09:29 10° N daylight
12 Dec - 13:19:00 10° N 13:22:20 27° NE 13:25:51 10° ESE night (unlit)
12 Dec - 14:59:37 10° W 15:02:07 16° SW 15:04:44 10° SSW night (unlit)
